Time,TemperatureF,DewpointF,PressureIn,WindDirection,WindDirectionDegrees,WindSpeedMPH,WindSpeedGustMPH,Humidity,HourlyPrecipIn,Conditions,Clouds,dailyrainin,SoftwareType,DateUTC
2013-03-01 00:00:00,27.0,23.0,-100.00,West,276,11.0,25.0,87,-99.99,,,-99.99,,2013-03-01 07:00:00,
2013-03-01 00:32:00,27.0,23.0,-100.00,West,276,11.0,25.0,87,-99.99,,,-99.99,,2013-03-01 07:32:00,
2013-03-01 00:42:00,27.0,23.0,-100.00,West,276,11.0,25.0,87,-99.99,,,-99.99,,2013-03-01 07:42:00,
2013-03-01 00:52:00,27.0,23.0,-100.00,West,276,11.0,25.0,87,-99.99,,,-99.99,,2013-03-01 07:52:00,
2013-03-01 01:00:00,26.0,25.0,-100.00,West,268,18.0,35.0,95,-99.99,,,-99.99,,2013-03-01 08:00:00,
2013-03-01 01:32:00,26.0,25.0,-100.00,West,268,18.0,35.0,95,-99.99,,,-99.99,,2013-03-01 08:32:00,
2013-03-01 01:43:00,26.0,25.0,-100.00,West,268,18.0,35.0,95,-99.99,,,-99.99,,2013-03-01 08:43:00,
2013-03-01 01:53:00,26.0,25.0,-100.00,West,268,18.0,35.0,95,-99.99,,,-99.99,,2013-03-01 08:53:00,
2013-03-01 02:00:00,26.0,25.0,-100.00,West,281,23.0,36.0,96,-99.99,,,-99.99,,2013-03-01 09:00:00,
2013-03-01 02:32:00,26.0,25.0,-100.00,West,281,23.0,36.0,96,-99.99,,,-99.99,,2013-03-01 09:32:00,
2013-03-01 02:42:00,26.0,25.0,-100.00,West,281,23.0,36.0,96,-99.99,,,-99.99,,2013-03-01 09:42:00,
2013-03-01 02:52:00,26.0,25.0,-100.00,West,281,23.0,36.0,96,-99.99,,,-99.99,,2013-03-01 09:52:00,
2013-03-01 03:00:00,27.0,26.0,-100.00,WNW,290,25.0,40.0,97,-99.99,,,-99.99,,2013-03-01 10:00:00,
2013-03-01 03:32:00,27.0,26.0,-100.00,WNW,290,25.0,40.0,97,-99.99,,,-99.99,,2013-03-01 10:32:00,
2013-03-01 03:42:00,27.0,26.0,-100.00,WNW,290,25.0,40.0,97,-99.99,,,-99.99,,2013-03-01 10:42:00,
2013-03-01 03:52:00,27.0,26.0,-100.00,WNW,290,25.0,40.0,97,-99.99,,,-99.99,,2013-03-01 10:52:00,
2013-03-01 04:00:00,27.0,26.0,-100.00,West,279,18.0,34.0,94,-99.99,,,-99.99,,2013-03-01 11:00:00,
2013-03-01 04:32:00,27.0,26.0,-100.00,West,279,18.0,34.0,94,-99.99,,,-99.99,,2013-03-01 11:32:00,
2013-03-01 04:42:00,27.0,26.0,-100.00,West,279,18.0,34.0,94,-99.99,,,-99.99,,2013-03-01 11:42:00,
2013-03-01 04:52:00,27.0,26.0,-100.00,West,279,18.0,34.0,94,-99.99,,,-99.99,,2013-03-01 11:52:00,
2013-03-01 05:00:00,27.0,26.0,-100.00,WNW,290,13.0,26.0,94,-99.99,,,-99.99,,2013-03-01 12:00:00,
2013-03-01 05:32:00,27.0,26.0,-100.00,WNW,290,13.0,26.0,94,-99.99,,,-99.99,,2013-03-01 12:32:00,
2013-03-01 05:42:00,27.0,26.0,-100.00,WNW,290,13.0,26.0,94,-99.99,,,-99.99,,2013-03-01 12:42:00,
2013-03-01 05:52:00,27.0,26.0,-100.00,WNW,290,13.0,26.0,94,-99.99,,,-99.99,,2013-03-01 12:52:00,
2013-03-01 06:00:00,28.0,27.0,-100.00,WNW,301,11.0,31.0,95,-99.99,,,-99.99,,2013-03-01 13:00:00,
2013-03-01 06:32:00,28.0,27.0,-100.00,WNW,301,11.0,31.0,95,-99.99,,,-99.99,,2013-03-01 13:32:00,
2013-03-01 06:42:00,28.0,27.0,-100.00,WNW,301,11.0,31.0,95,-99.99,,,-99.99,,2013-03-01 13:42:00,
2013-03-01 06:52:00,28.0,27.0,-100.00,WNW,301,11.0,31.0,95,-99.99,,,-99.99,,2013-03-01 13:52:00,
2013-03-01 07:00:00,27.0,27.0,-100.00,WNW,301,14.0,32.0,97,-99.99,,,-99.99,,2013-03-01 14:00:00,
2013-03-01 07:32:00,27.0,27.0,-100.00,WNW,301,14.0,32.0,97,-99.99,,,-99.99,,2013-03-01 14:32:00,
2013-03-01 07:42:00,27.0,27.0,-100.00,WNW,301,14.0,32.0,97,-99.99,,,-99.99,,2013-03-01 14:42:00,
2013-03-01 07:52:00,27.0,27.0,-100.00,WNW,301,14.0,32.0,97,-99.99,,,-99.99,,2013-03-01 14:52:00,
2013-03-01 08:00:00,27.0,27.0,-100.00,WNW,303,17.0,31.0,97,-99.99,,,-99.99,,2013-03-01 15:00:00,
2013-03-01 08:32:00,27.0,27.0,-100.00,WNW,303,17.0,31.0,97,-99.99,,,-99.99,,2013-03-01 15:32:00,
2013-03-01 08:42:00,27.0,27.0,-100.00,WNW,303,17.0,31.0,97,-99.99,,,-99.99,,2013-03-01 15:42:00,
2013-03-01 08:52:00,27.0,27.0,-100.00,WNW,303,17.0,31.0,97,-99.99,,,-99.99,,2013-03-01 15:52:00,
2013-03-01 09:00:00,28.0,27.0,-100.00,NW,310,11.0,26.0,96,-99.99,,,-99.99,,2013-03-01 16:00:00,
2013-03-01 09:32:00,28.0,27.0,-100.00,NW,310,11.0,26.0,96,-99.99,,,-99.99,,2013-03-01 16:32:00,
2013-03-01 09:42:00,28.0,27.0,-100.00,NW,310,11.0,26.0,96,-99.99,,,-99.99,,2013-03-01 16:42:00,
2013-03-01 09:52:00,28.0,27.0,-100.00,NW,310,11.0,26.0,96,-99.99,,,-99.99,,2013-03-01 16:52:00,
2013-03-01 10:00:00,29.0,28.0,-100.00,NNW,330,5.0,15.0,94,-99.99,,,-99.99,,2013-03-01 17:00:00,
2013-03-01 10:32:00,29.0,28.0,-100.00,NNW,330,5.0,15.0,94,-99.99,,,-99.99,,2013-03-01 17:32:00,
2013-03-01 10:42:00,29.0,28.0,-100.00,NNW,330,5.0,15.0,94,-99.99,,,-99.99,,2013-03-01 17:42:00,
2013-03-01 10:52:00,29.0,28.0,-100.00,NNW,330,5.0,15.0,94,-99.99,,,-99.99,,2013-03-01 17:52:00,
2013-03-01 11:00:00,31.0,28.0,-100.00,NW,317,5.0,15.0,88,-99.99,,,-99.99,,2013-03-01 18:00:00,
2013-03-01 11:32:00,31.0,28.0,-100.00,NW,317,5.0,15.0,88,-99.99,,,-99.99,,2013-03-01 18:32:00,
2013-03-01 11:42:00,31.0,28.0,-100.00,NW,317,5.0,15.0,88,-99.99,,,-99.99,,2013-03-01 18:42:00,
2013-03-01 11:52:00,31.0,28.0,-100.00,NW,317,5.0,15.0,88,-99.99,,,-99.99,,2013-03-01 18:52:00,
2013-03-01 12:00:00,33.0,28.0,-100.00,NW,311,6.0,16.0,81,-99.99,,,-99.99,,2013-03-01 19:00:00,
2013-03-01 12:32:00,33.0,28.0,-100.00,NW,311,6.0,16.0,81,-99.99,,,-99.99,,2013-03-01 19:32:00,
2013-03-01 12:42:00,33.0,28.0,-100.00,NW,311,6.0,16.0,81,-99.99,,,-99.99,,2013-03-01 19:42:00,
2013-03-01 12:52:00,33.0,28.0,-100.00,NW,311,6.0,16.0,81,-99.99,,,-99.99,,2013-03-01 19:52:00,
2013-03-01 13:00:00,36.0,30.0,-100.00,NNW,330,4.0,14.0,77,-99.99,,,-99.99,,2013-03-01 20:00:00,
2013-03-01 13:32:00,36.0,30.0,-100.00,NNW,330,4.0,14.0,77,-99.99,,,-99.99,,2013-03-01 20:32:00,
2013-03-01 13:42:00,36.0,30.0,-100.00,NNW,330,4.0,14.0,77,-99.99,,,-99.99,,2013-03-01 20:42:00,
2013-03-01 13:52:00,36.0,30.0,-100.00,NNW,330,4.0,14.0,77,-99.99,,,-99.99,,2013-03-01 20:52:00,
2013-03-01 14:00:00,40.0,31.0,-100.00,WNW,299,3.0,10.0,69,-99.99,,,-99.99,,2013-03-01 21:00:00,
2013-03-01 14:32:00,40.0,31.0,-100.00,WNW,299,3.0,10.0,69,-99.99,,,-99.99,,2013-03-01 21:32:00,
2013-03-01 14:42:00,40.0,31.0,-100.00,WNW,299,3.0,10.0,69,-99.99,,,-99.99,,2013-03-01 21:42:00,
2013-03-01 14:52:00,40.0,31.0,-100.00,WNW,299,3.0,10.0,69,-99.99,,,-99.99,,2013-03-01 21:52:00,
2013-03-01 15:00:00,41.0,32.0,-100.00,East,80,3.0,11.0,69,-99.99,,,-99.99,,2013-03-01 22:00:00,
2013-03-01 15:32:00,41.0,32.0,-100.00,East,80,3.0,11.0,69,-99.99,,,-99.99,,2013-03-01 22:32:00,
2013-03-01 15:42:00,41.0,32.0,-100.00,East,80,3.0,11.0,69,-99.99,,,-99.99,,2013-03-01 22:42:00,
2013-03-01 15:52:00,41.0,32.0,-100.00,East,80,3.0,11.0,69,-99.99,,,-99.99,,2013-03-01 22:52:00,
2013-03-01 16:00:00,36.0,29.0,-100.00,WNW,303,9.0,23.0,75,-99.99,,,-99.99,,2013-03-01 23:00:00,
2013-03-01 16:32:00,36.0,29.0,-100.00,WNW,303,9.0,23.0,75,-99.99,,,-99.99,,2013-03-01 23:32:00,
2013-03-01 16:42:00,36.0,29.0,-100.00,WNW,303,9.0,23.0,75,-99.99,,,-99.99,,2013-03-01 23:42:00,
2013-03-01 16:52:00,36.0,29.0,-100.00,WNW,303,9.0,23.0,75,-99.99,,,-99.99,,2013-03-01 23:52:00,
2013-03-01 17:00:00,33.0,28.0,-100.00,NW,304,14.0,26.0,80,-99.99,,,-99.99,,2013-03-02 00:00:00,
2013-03-01 17:32:00,33.0,28.0,-100.00,NW,304,14.0,26.0,80,-99.99,,,-99.99,,2013-03-02 00:32:00,
2013-03-01 17:42:00,33.0,28.0,-100.00,NW,304,14.0,26.0,80,-99.99,,,-99.99,,2013-03-02 00:42:00,
2013-03-01 17:52:00,33.0,28.0,-100.00,NW,304,14.0,26.0,80,-99.99,,,-99.99,,2013-03-02 00:52:00,
2013-03-01 18:00:00,32.0,28.0,-100.00,NW,305,6.0,14.0,83,-99.99,,,-99.99,,2013-03-02 01:00:00,
2013-03-01 18:32:00,32.0,28.0,-100.00,NW,305,6.0,14.0,83,-99.99,,,-99.99,,2013-03-02 01:32:00,
2013-03-01 18:42:00,32.0,28.0,-100.00,NW,305,6.0,14.0,83,-99.99,,,-99.99,,2013-03-02 01:42:00,
2013-03-01 18:52:00,32.0,28.0,-100.00,NW,305,6.0,14.0,83,-99.99,,,-99.99,,2013-03-02 01:52:00,
2013-03-01 19:00:00,30.0,27.0,-100.00,NW,318,5.0,10.0,85,-99.99,,,-99.99,,2013-03-02 02:00:00,
2013-03-01 19:32:00,30.0,27.0,-100.00,NW,318,5.0,10.0,85,-99.99,,,-99.99,,2013-03-02 02:32:00,
2013-03-01 19:42:00,30.0,27.0,-100.00,NW,318,5.0,10.0,85,-99.99,,,-99.99,,2013-03-02 02:42:00,
2013-03-01 19:52:00,30.0,27.0,-100.00,NW,318,5.0,10.0,85,-99.99,,,-99.99,,2013-03-02 02:52:00,
2013-03-01 20:00:00,29.0,27.0,-100.00,WNW,287,5.0,9.0,90,-99.99,,,-99.99,,2013-03-02 03:00:00,
2013-03-01 20:32:00,29.0,27.0,-100.00,WNW,287,5.0,9.0,90,-99.99,,,-99.99,,2013-03-02 03:32:00,
2013-03-01 20:42:00,29.0,27.0,-100.00,WNW,287,5.0,9.0,90,-99.99,,,-99.99,,2013-03-02 03:42:00,
2013-03-01 20:52:00,29.0,27.0,-100.00,WNW,287,5.0,9.0,90,-99.99,,,-99.99,,2013-03-02 03:52:00,
2013-03-01 21:00:00,29.0,26.0,-100.00,NNW,330,4.0,9.0,89,-99.99,,,-99.99,,2013-03-02 04:00:00,
2013-03-01 21:32:00,29.0,26.0,-100.00,NNW,330,4.0,9.0,89,-99.99,,,-99.99,,2013-03-02 04:32:00,
2013-03-01 21:42:00,29.0,26.0,-100.00,NNW,330,4.0,9.0,89,-99.99,,,-99.99,,2013-03-02 04:42:00,
2013-03-01 21:52:00,29.0,26.0,-100.00,NNW,330,4.0,9.0,89,-99.99,,,-99.99,,2013-03-02 04:52:00,
2013-03-01 22:00:00,29.0,24.0,-100.00,NNW,337,3.0,8.0,81,-99.99,,,-99.99,,2013-03-02 05:00:00,
2013-03-01 22:32:00,29.0,24.0,-100.00,NNW,337,3.0,8.0,81,-99.99,,,-99.99,,2013-03-02 05:32:00,
2013-03-01 22:42:00,29.0,24.0,-100.00,NNW,337,3.0,8.0,81,-99.99,,,-99.99,,2013-03-02 05:42:00,
2013-03-01 22:52:00,29.0,24.0,-100.00,NNW,337,3.0,8.0,81,-99.99,,,-99.99,,2013-03-02 05:52:00,
2013-03-01 23:00:00,29.0,24.0,-100.00,NNW,335,2.0,5.0,82,-99.99,,,-99.99,,2013-03-02 06:00:00,
2013-03-01 23:32:00,29.0,24.0,-100.00,NNW,335,2.0,5.0,82,-99.99,,,-99.99,,2013-03-02 06:32:00,
2013-03-01 23:42:00,29.0,24.0,-100.00,NNW,335,2.0,5.0,82,-99.99,,,-99.99,,2013-03-02 06:42:00,
2013-03-01 23:52:00,29.0,24.0,-100.00,NNW,335,2.0,5.0,82,-99.99,,,-99.99,,2013-03-02 06:52:00,